User: anonymous   Login
Location: Krakow
(50.0830°N, 19.9170°E)
Time: 01:11:25
(UTC+02:00)
Language:

BUGSAT 1 - Orbit

View from above orbital plane
View from above orbital plane
View from above satellite
View from above satellite

Ground track
Ground track

The orbit data is extracted from the following two-line orbital elements,

1 40014U 14033E   24151.57346007  .00006055  00000-0  43966-3 0  9992
2 40014  98.1276 192.2855 0035672 189.9372 170.1151 15.03774069542995
Epoch (UTC): 30 May 2024 13:45:46
Eccentricity: 0.0035672
inclination: 98.1276°
perigee height: 530 km
apogee height: 580 km
right ascension of ascending node: 192.2855°
argument of perigee: 189.9372°
revolutions per day: 15.03774069
mean anomaly at epoch: 170.1151°
orbit number at epoch: 54299

The dashed part of the orbit path shows where the satellite is in the earth's shadow,  

DLR